DW6794 Weather Reports


Display with metric or nautical units.
time (UTC)temp
F
wind
direction
speed
MPH
gust
MPH
rain 1hr
in
rain 24hr
in
rain mn
in
humidity
%
barometer
mb
20141022121352 43 5 0.0 0.0 0.00 0.00 0.00 79 1018.7
20141022120351 43 5 0.0 0.0 0.00 0.00 0.00 79 1018.6
20141022115351 43 5 0.0 0.0 0.00 0.00 0.00 79 1018.5
20141022114351 43 5 0.0 0.0 0.00 0.00 0.00 79 1018.5
20141022112352 43 5 0.0 0.0 0.00 0.00 0.00 79 1018.1
20141022111352 44 5 0.0 0.0 0.00 0.00 0.00 79 1018.1
20141022110352 44 5 0.0 0.0 0.00 0.00 0.00 79 1018.0
20141022105352 45 5 0.0 0.0 0.00 0.00 0.00 79 1017.8
20141022104352 45 5 0.0 0.0 0.00 0.00 0.00 79 1017.6
20141022103352 45 5 0.0 0.0 0.00 0.00 0.00 79 1017.5
20141022102352 45 5 0.0 0.0 0.00 0.00 0.00 78 1017.5
20141022101352 45 5 0.0 0.0 0.00 0.00 0.00 78 1017.3
20141022100351 44 5 0.0 0.0 0.00 0.00 0.00 78 1017.1
20141022095352 44 5 0.0 0.0 0.00 0.00 0.00 78 1016.9
20141022094352 44 5 0.0 0.0 0.00 0.00 0.00 77 1016.9
20141022093352 44 5 0.0 0.0 0.00 0.00 0.00 77 1016.8
20141022092352 44 5 0.0 0.0 0.00 0.00 0.00 77 1016.7
20141022091352 43 5 0.0 0.0 0.00 0.00 0.00 77 1016.6
20141022085352 43 5 0.0 0.0 0.00 0.00 0.00 77 1016.3
20141022084352 43 5 0.0 0.0 0.00 0.00 0.00 77 1016.3
20141022083352 43 5 0.0 0.0 0.00 0.00 0.00 77 1016.3
20141022082352 42 5 0.0 0.0 0.00 0.00 0.00 76 1016.0
20141022081352 42 5 0.0 0.0 0.00 0.00 0.00 76 1015.9
20141022080352 42 5 0.0 0.0 0.00 0.00 0.00 76 1015.9
20141022075352 42 5 0.0 0.0 0.00 0.00 0.00 76 1015.8
20141022074352 41 5 0.0 0.0 0.00 0.00 0.00 77 1015.8
20141022073353 41 5 0.0 0.0 0.00 0.00 0.00 76 1015.8
20141022072352 41 5 0.0 0.0 0.00 0.00 0.00 75 1015.8
20141022071353 40 5 0.0 0.0 0.00 0.00 0.00 75 1015.8
20141022070353 40 5 0.0 0.0 0.00 0.00 0.00 74 1015.7
20141022065353 40 5 0.0 0.0 0.00 0.00 0.00 74 1015.7
20141022064353 39 5 0.0 0.0 0.00 0.00 0.00 74 1015.8
20141022063352 39 5 0.0 0.0 0.00 0.00 0.00 73 1015.8
20141022062353 39 5 0.0 0.0 0.00 0.00 0.00 73 1015.7
20141022061353 38 5 0.0 0.0 0.00 0.00 0.00 73 1015.7
20141022060352 38 5 0.0 0.0 0.00 0.00 0.00 74 1015.7
20141022055353 38 5 0.0 0.0 0.00 0.00 0.00 73 1015.7
20141022054353 38 5 0.0 0.0 0.00 0.00 0.00 72 1015.8
20141022053353 38 5 0.0 0.0 0.00 0.00 0.00 72 1015.7
20141022052353 38 5 0.0 0.0 0.00 0.00 0.00 72 1015.8
20141022050352 39 5 0.0 0.0 0.00 0.00 0.00 70 1015.6
20141022045353 39 5 0.0 0.0 0.00 0.00 0.00 70 1015.6
20141022044353 40 5 0.0 0.0 0.00 0.00 0.00 70 1015.6
20141022043353 40 5 0.0 0.0 0.00 0.00 0.00 69 1015.7
20141022042353 40 5 0.0 0.0 0.00 0.00 0.00 69 1015.7
20141022041353 41 5 0.0 0.0 0.00 0.00 0.00 70 1015.7
20141022040353 41 5 0.0 0.0 0.00 0.00 0.00 69 1015.9
20141022035353 41 5 0.0 0.0 0.00 0.00 0.00 69 1016.0
20141022034353 42 5 0.0 0.0 0.00 0.00 0.00 67 1016.1
20141022033353 42 5 0.0 0.0 0.00 0.00 0.00 68 1016.1
20141022032354 42 5 0.0 0.0 0.00 0.00 0.00 67 1016.1
20141022030355 42 5 0.0 0.0 0.00 0.00 0.00 65 1016.1
20141022025353 43 5 0.0 0.0 0.00 0.00 0.00 63 1016.0
20141022024353 43 5 0.0 0.0 0.00 0.00 0.00 64 1016.1
20141022023354 45 5 0.0 0.0 0.00 0.00 0.00 62 1016.0
20141022022353 46 5 0.0 0.0 0.00 0.00 0.00 60 1015.9
20141022021353 47 5 0.0 0.0 0.00 0.00 0.00 59 1015.7
20141022020354 49 5 0.0 0.0 0.00 0.00 0.00 57 1015.6
20141022015354 50 5 0.0 0.0 0.00 0.00 0.00 57 1015.5
20141022014353 51 5 0.0 0.0 0.00 0.00 0.00 56 1015.4
20141022012353 53 5 0.0 0.0 0.00 0.00 0.00 55 1015.0
20141022011354 53 355 0.0 0.0 0.00 0.00 0.00 56 1014.9
20141022010354 54 24 0.0 0.0 0.00 0.00 0.00 56 1014.8
20141022005354 54 24 0.0 0.0 0.00 0.00 0.00 56 1014.8
20141022004354 54 5 0.0 0.0 0.00 0.00 0.00 56 1014.8
20141022003354 55 355 0.0 0.0 0.00 0.00 0.00 56 1014.7
20141022002354 55 348 0.0 0.0 0.00 0.00 0.00 55 1014.4
20141022001354 55 348 0.0 0.0 0.00 0.00 0.00 55 1014.3
20141022000354 56 348 0.0 6.0 0.00 0.00 0.00 54 1014.3
20141021235353 56 10 3.0 13.0 0.00 0.00 0.00 54 1014.1
20141021234354 56 13 0.0 1.0 0.00 0.00 0.00 55 1013.9
20141021233354 57 5 0.0 7.0 0.00 0.00 0.00 55 1013.8
20141021232354 57 0 1.0 8.0 0.00 0.00 0.00 54 1013.7
20141021231354 57 351 1.0 6.0 0.00 0.00 0.00 54 1013.6
20141021230354 58 11 1.0 8.0 0.00 0.00 0.00 54 1013.3
20141021225354 58 13 0.0 12.0 0.00 0.00 0.00 54 1013.2
20141021224354 58 355 2.0 7.0 0.00 0.00 0.00 54 1013.1
20141021223353 59 13 1.0 7.0 0.00 0.00 0.00 54 1012.8
20141021222354 60 5 1.0 10.0 0.00 0.00 0.00 53 1012.6
20141021220354 60 355 1.0 5.0 0.00 0.00 0.00 53 1012.2
20141021215354 61 299 0.0 7.0 0.00 0.00 0.00 53 1012.1
20141021214355 62 15 0.0 9.0 0.00 0.00 0.00 53 1012.1
20141021213354 62 263 6.0 14.0 0.00 0.00 0.00 51 1011.9
20141021211355 63 260 5.0 10.0 0.00 0.00 0.00 53 1011.7
20141021210354 62 282 3.0 10.0 0.00 0.00 0.00 54 1011.8
20141021205356 61 269 3.0 9.0 0.00 0.00 0.00 55 1011.8
20141021203354 62 275 5.0 17.0 0.00 0.00 0.00 54 1011.7
20141021202354 63 286 5.0 14.0 0.00 0.00 0.00 55 1011.7
20141021201354 63 242 5.0 9.0 0.00 0.00 0.00 56 1011.5
20141021200355 62 261 3.0 7.0 0.00 0.00 0.00 57 1011.5
20141021195355 62 260 2.0 15.0 0.00 0.00 0.00 56 1011.5
20141021193354 62 279 4.0 12.0 0.00 0.00 0.00 57 1011.5
20141021192354 62 315 5.0 13.0 0.00 0.00 0.00 55 1011.5
20141021191354 62 300 3.0 16.0 0.00 0.00 0.00 57 1011.5
20141021190355 62 263 10.0 15.0 0.00 0.00 0.00 55 1011.3
20141021185355 63 286 3.0 15.0 0.00 0.00 0.00 57 1011.4
20141021184354 62 296 5.0 13.0 0.00 0.00 0.00 59 1011.5
20141021183355 61 267 5.0 8.0 0.00 0.00 0.00 60 1011.6
20141021182355 61 305 4.0 12.0 0.00 0.00 0.00 60 1011.9
20141021181355 62 265 3.0 14.0 0.00 0.00 0.00 61 1011.8
20141021180354 62 255 8.0 18.0 0.00 0.00 0.00 61 1011.6
20141021175356 61 267 12.0 20.0 0.00 0.00 0.00 62 1011.6
20141021174355 62 250 3.0 16.0 0.00 0.00 0.00 62 1011.8
20141021173355 62 301 6.0 18.0 0.00 0.00 0.00 62 1011.9
20141021172355 62 276 5.0 16.0 0.00 0.00 0.00 64 1011.8
20141021165355 62 276 9.0 17.0 0.00 0.00 0.00 65 1011.9
20141021164356 61 268 5.0 14.0 0.00 0.00 0.00 68 1012.1
20141021162355 60 263 7.0 16.0 0.00 0.00 0.00 71 1012.4
20141021160356 61 249 9.0 14.0 0.00 0.00 0.00 72 1012.5
20141021154356 60 248 9.0 14.0 0.00 0.00 0.00 74 1012.6